Time,TemperatureF,DewpointF,PressureIn,WindDirection,WindDirectionDegrees,WindSpeedMPH,WindSpeedGustMPH,Humidity,HourlyPrecipIn,Conditions,Clouds,dailyrainin,SoftwareType,DateUTC
2013-06-14 00:01:00,59.0,54.0,30.00,ENE,75,0.0,1.0,83,0.00,,,0.68,,2013-06-14 04:01:00,
2013-06-14 00:12:00,59.0,54.0,29.99,ENE,75,0.0,2.0,83,0.00,,,0.46,,2013-06-14 04:12:00,
2013-06-14 00:22:00,59.0,54.0,30.01,ENE,75,0.0,2.0,84,0.00,,,0.46,,2013-06-14 04:22:00,
2013-06-14 00:33:00,59.0,54.0,30.01,ENE,76,1.0,2.0,84,0.00,,,0.46,,2013-06-14 04:33:00,
2013-06-14 00:43:00,58.0,53.0,30.01,ENE,76,0.0,1.0,84,0.00,,,0.46,,2013-06-14 04:43:00,
2013-06-14 00:53:00,58.0,53.0,30.01,NE,56,0.0,1.0,84,0.00,,,0.46,,2013-06-14 04:53:00,
2013-06-14 01:02:00,58.0,53.0,30.01,East,86,1.0,10.0,84,0.00,,,0.46,,2013-06-14 05:02:00,
2013-06-14 01:11:00,58.0,53.0,30.01,East,86,0.0,4.0,84,0.00,,,0.27,,2013-06-14 05:11:00,
2013-06-14 01:22:00,57.0,53.0,30.01,East,86,1.0,3.0,85,0.00,,,0.27,,2013-06-14 05:22:00,
2013-06-14 01:34:00,57.0,53.0,30.01,East,86,0.0,1.0,86,0.00,,,0.27,,2013-06-14 05:34:00,
2013-06-14 01:43:00,57.0,53.0,30.02,East,86,0.0,1.0,86,0.00,,,0.27,,2013-06-14 05:43:00,
2013-06-14 01:52:00,57.0,53.0,30.02,East,86,0.0,3.0,87,0.00,,,0.27,,2013-06-14 05:52:00,
2013-06-14 02:02:00,56.0,52.0,30.02,East,87,3.0,6.0,87,0.00,,,0.27,,2013-06-14 06:02:00,
2013-06-14 02:12:00,56.0,52.0,30.02,ESE,115,1.0,4.0,88,0.00,,,0.11,,2013-06-14 06:12:00,
2013-06-14 02:22:00,56.0,52.0,30.02,ESE,106,0.0,5.0,88,0.00,,,0.11,,2013-06-14 06:22:00,
2013-06-14 02:33:00,56.0,52.0,30.02,East,98,0.0,3.0,88,0.00,,,0.11,,2013-06-14 06:33:00,
2013-06-14 02:43:00,56.0,52.0,30.02,ESE,103,0.0,4.0,88,0.00,,,0.11,,2013-06-14 06:43:00,
2013-06-14 02:52:00,55.0,52.0,30.02,ESE,103,0.0,1.0,89,0.00,,,0.11,,2013-06-14 06:52:00,
2013-06-14 03:02:00,55.0,52.0,30.02,ESE,103,0.0,2.0,89,0.00,,,0.11,,2013-06-14 07:02:00,
2013-06-14 03:12:00,55.0,52.0,30.02,East,94,0.0,1.0,89,0.00,,,0.00,,2013-06-14 07:12:00,
2013-06-14 03:22:00,55.0,52.0,30.03,East,94,0.0,1.0,89,0.00,,,0.00,,2013-06-14 07:22:00,
2013-06-14 03:33:00,55.0,53.0,30.03,East,94,0.0,2.0,92,0.00,,,0.00,,2013-06-14 07:33:00,
2013-06-14 03:43:00,55.0,52.0,30.03,East,94,0.0,1.0,89,0.00,,,0.00,,2013-06-14 07:43:00,
2013-06-14 03:53:00,55.0,52.0,30.03,East,94,0.0,0.0,89,0.00,,,0.00,,2013-06-14 07:53:00,
2013-06-14 04:02:00,54.0,51.0,30.03,East,94,0.0,2.0,90,0.00,,,0.00,,2013-06-14 08:02:00,
2013-06-14 04:12:00,54.0,51.0,30.03,East,94,0.0,1.0,90,0.00,,,0.00,,2013-06-14 08:12:00,
2013-06-14 04:23:00,54.0,51.0,30.04,East,94,0.0,2.0,90,0.00,,,0.00,,2013-06-14 08:23:00,
2013-06-14 04:33:00,54.0,51.0,30.03,East,94,0.0,0.0,90,0.00,,,0.00,,2013-06-14 08:33:00,
2013-06-14 04:43:00,54.0,51.0,30.03,East,94,0.0,0.0,90,0.00,,,0.00,,2013-06-14 08:43:00,
2013-06-14 04:53:00,54.0,51.0,30.03,East,94,0.0,0.0,91,0.00,,,0.00,,2013-06-14 08:53:00,
2013-06-14 05:02:00,54.0,51.0,30.03,East,94,0.0,0.0,91,0.00,,,0.00,,2013-06-14 09:02:00,
2013-06-14 05:12:00,53.0,50.0,30.04,East,94,0.0,1.0,91,0.00,,,0.00,,2013-06-14 09:12:00,
2013-06-14 05:22:00,53.0,50.0,30.04,East,94,0.0,0.0,91,0.00,,,0.00,,2013-06-14 09:22:00,
2013-06-14 05:33:00,53.0,50.0,30.04,East,94,0.0,0.0,91,0.00,,,0.00,,2013-06-14 09:33:00,
2013-06-14 05:43:00,53.0,51.0,30.04,East,94,0.0,1.0,92,0.00,,,0.00,,2013-06-14 09:43:00,
2013-06-14 05:53:00,53.0,51.0,30.04,East,94,1.0,2.0,92,0.00,,,0.00,,2013-06-14 09:53:00,
2013-06-14 06:01:00,53.0,51.0,30.04,East,94,0.0,2.0,92,0.00,,,0.00,,2013-06-14 10:01:00,
2013-06-14 06:11:00,52.0,50.0,30.04,East,94,0.0,1.0,92,0.00,,,0.00,,2013-06-14 10:11:00,
2013-06-14 06:22:00,52.0,50.0,30.04,East,94,0.0,1.0,92,0.00,,,0.00,,2013-06-14 10:22:00,
2013-06-14 06:34:00,52.0,50.0,30.04,East,94,0.0,1.0,92,0.00,,,0.00,,2013-06-14 10:34:00,
2013-06-14 06:43:00,52.0,50.0,30.05,East,94,0.0,0.0,92,0.00,,,0.00,,2013-06-14 10:43:00,
2013-06-14 06:52:00,52.0,50.0,30.05,East,94,0.0,0.0,92,0.00,,,0.00,,2013-06-14 10:52:00,
2013-06-14 07:02:00,52.0,50.0,30.06,East,94,0.0,0.0,93,0.00,,,0.00,,2013-06-14 11:02:00,
2013-06-14 07:11:00,52.0,50.0,30.07,East,94,0.0,0.0,93,0.00,,,0.00,,2013-06-14 11:11:00,
2013-06-14 07:23:00,52.0,50.0,30.07,East,94,0.0,0.0,94,0.00,,,0.00,,2013-06-14 11:23:00,
2013-06-14 07:32:00,53.0,51.0,30.07,East,94,0.0,0.0,94,0.00,,,0.00,,2013-06-14 11:32:00,
2013-06-14 07:43:00,54.0,52.0,30.08,East,94,0.0,0.0,94,0.00,,,0.00,,2013-06-14 11:43:00,
2013-06-14 07:52:00,55.0,53.0,30.09,East,94,0.0,0.0,93,0.00,,,0.00,,2013-06-14 11:52:00,
2013-06-14 08:02:00,55.0,52.0,30.09,East,94,0.0,1.0,91,0.00,,,0.00,,2013-06-14 12:02:00,
2013-06-14 08:12:00,56.0,52.0,30.09,East,94,0.0,1.0,88,0.00,,,0.00,,2013-06-14 12:12:00,
2013-06-14 08:22:00,57.0,53.0,30.09,East,94,0.0,1.0,87,0.00,,,0.00,,2013-06-14 12:22:00,
2013-06-14 08:33:00,58.0,53.0,30.09,East,94,1.0,4.0,84,0.00,,,0.00,,2013-06-14 12:33:00,
2013-06-14 08:43:00,58.0,52.0,30.09,East,94,1.0,2.0,81,0.00,,,0.00,,2013-06-14 12:43:00,
2013-06-14 08:52:00,59.0,53.0,30.10,East,93,0.0,5.0,81,0.00,,,0.00,,2013-06-14 12:52:00,
2013-06-14 09:02:00,59.0,53.0,30.09,East,93,0.0,5.0,81,0.00,,,0.00,,2013-06-14 13:02:00,
2013-06-14 09:11:00,60.0,53.0,30.10,East,93,3.0,5.0,77,0.00,,,0.00,,2013-06-14 13:11:00,
2013-06-14 09:22:00,61.0,53.0,30.10,East,84,3.0,7.0,74,0.00,,,0.00,,2013-06-14 13:22:00,
2013-06-14 09:33:00,61.0,53.0,30.10,East,84,3.0,7.0,74,0.00,,,0.00,,2013-06-14 13:33:00,
2013-06-14 09:43:00,61.0,53.0,30.11,East,79,2.0,9.0,75,0.00,,,0.00,,2013-06-14 13:43:00,
2013-06-14 09:53:00,62.0,53.0,30.11,East,79,1.0,5.0,72,0.00,,,0.00,,2013-06-14 13:53:00,
2013-06-14 10:02:00,62.0,53.0,30.11,East,80,2.0,5.0,72,0.00,,,0.00,,2013-06-14 14:02:00,
2013-06-14 10:11:00,63.0,53.0,30.12,East,81,1.0,5.0,69,0.00,,,0.00,,2013-06-14 14:11:00,
2013-06-14 10:22:00,64.0,53.0,30.12,East,98,0.0,2.0,68,0.00,,,0.00,,2013-06-14 14:22:00,
2013-06-14 10:34:00,64.0,53.0,30.12,East,98,0.0,1.0,67,0.00,,,0.00,,2013-06-14 14:34:00,
2013-06-14 10:43:00,65.0,53.0,30.11,SW,214,0.0,4.0,66,0.00,,,0.00,,2013-06-14 14:43:00,
2013-06-14 10:52:00,65.0,53.0,30.12,SSW,197,0.0,3.0,65,0.00,,,0.00,,2013-06-14 14:52:00,
2013-06-14 11:02:00,66.0,54.0,30.12,SSW,207,1.0,2.0,66,0.00,,,0.00,,2013-06-14 15:02:00,
2013-06-14 11:11:00,67.0,54.0,30.12,ESE,117,0.0,5.0,64,0.00,,,0.00,,2013-06-14 15:11:00,
2013-06-14 11:23:00,67.0,54.0,30.11,East,97,2.0,7.0,62,0.00,,,0.00,,2013-06-14 15:23:00,
2013-06-14 11:33:00,68.0,55.0,30.12,East,96,0.0,4.0,64,0.00,,,0.00,,2013-06-14 15:33:00,
2013-06-14 11:44:00,68.0,53.0,30.12,East,90,4.0,6.0,59,0.00,,,0.00,,2013-06-14 15:44:00,
2013-06-14 11:53:00,68.0,54.0,30.11,East,91,0.0,6.0,60,0.00,,,0.00,,2013-06-14 15:53:00,
2013-06-14 12:01:00,69.0,55.0,30.11,ESE,105,3.0,4.0,61,0.00,,,0.00,,2013-06-14 16:01:00,
2013-06-14 12:11:00,69.0,54.0,30.10,NW,311,0.0,6.0,59,0.00,,,0.00,,2013-06-14 16:11:00,
2013-06-14 12:22:00,70.0,54.0,30.10,WNW,288,2.0,5.0,56,0.00,,,0.00,,2013-06-14 16:22:00,
2013-06-14 12:33:00,69.0,52.0,30.09,ESE,104,3.0,7.0,55,0.00,,,0.00,,2013-06-14 16:33:00,
2013-06-14 12:43:00,71.0,52.0,30.09,North,5,1.0,4.0,51,0.00,,,0.00,,2013-06-14 16:43:00,
2013-06-14 12:52:00,72.0,52.0,30.09,NE,47,2.0,6.0,49,0.00,,,0.00,,2013-06-14 16:52:00,
2013-06-14 13:02:00,73.0,53.0,30.09,NNE,22,2.0,6.0,50,0.00,,,0.00,,2013-06-14 17:02:00,
2013-06-14 13:11:00,73.0,53.0,30.10,NNW,338,1.0,4.0,49,0.00,,,0.00,,2013-06-14 17:11:00,
2013-06-14 13:22:00,74.0,54.0,30.09,NE,42,0.0,3.0,50,0.00,,,0.00,,2013-06-14 17:22:00,
2013-06-14 13:34:00,74.0,54.0,30.09,West,274,1.0,4.0,50,0.00,,,0.00,,2013-06-14 17:34:00,
2013-06-14 13:43:00,75.0,53.0,30.08,ENE,66,2.0,6.0,46,0.00,,,0.00,,2013-06-14 17:43:00,
2013-06-14 13:53:00,75.0,53.0,30.08,NE,49,2.0,6.0,46,0.00,,,0.00,,2013-06-14 17:53:00,
2013-06-14 14:02:00,74.0,54.0,30.08,ENE,71,3.0,6.0,50,0.00,,,0.00,,2013-06-14 18:02:00,
2013-06-14 14:11:00,75.0,53.0,30.07,ENE,63,1.0,6.0,47,0.00,,,0.00,,2013-06-14 18:11:00,
2013-06-14 14:22:00,75.0,51.0,30.07,WSW,237,3.0,7.0,43,0.00,,,0.00,,2013-06-14 18:22:00,
2013-06-14 14:32:00,76.0,50.0,30.06,South,180,3.0,6.0,40,0.00,,,0.00,,2013-06-14 18:32:00,
2013-06-14 14:43:00,76.0,49.0,30.06,SE,137,0.0,4.0,39,0.00,,,0.00,,2013-06-14 18:43:00,
2013-06-14 14:52:00,76.0,50.0,30.06,NE,55,4.0,7.0,40,0.00,,,0.00,,2013-06-14 18:52:00,
2013-06-14 15:01:00,76.0,49.0,30.05,East,86,0.0,5.0,39,0.00,,,0.00,,2013-06-14 19:01:00,
2013-06-14 15:11:00,77.0,51.0,30.06,ESE,105,0.0,2.0,41,0.00,,,0.00,,2013-06-14 19:11:00,
2013-06-14 15:22:00,77.0,53.0,30.06,SW,224,0.0,3.0,44,0.00,,,0.00,,2013-06-14 19:22:00,
2013-06-14 15:32:00,77.0,49.0,30.05,NW,313,1.0,5.0,38,0.00,,,0.00,,2013-06-14 19:32:00,
2013-06-14 15:43:00,77.0,55.0,30.06,West,261,0.0,4.0,46,0.00,,,0.00,,2013-06-14 19:43:00,
2013-06-14 15:53:00,78.0,51.0,30.06,ENE,76,0.0,4.0,39,0.00,,,0.00,,2013-06-14 19:53:00,
2013-06-14 16:02:00,78.0,52.0,30.06,ESE,104,0.0,4.0,41,0.00,,,0.00,,2013-06-14 20:02:00,
2013-06-14 16:11:00,78.0,50.0,30.06,ENE,77,1.0,6.0,37,0.00,,,0.00,,2013-06-14 20:11:00,
2013-06-14 16:22:00,78.0,53.0,30.06,ENE,69,0.0,4.0,42,0.00,,,0.00,,2013-06-14 20:22:00,
2013-06-14 16:33:00,78.0,50.0,30.05,NE,45,0.0,4.0,38,0.00,,,0.00,,2013-06-14 20:33:00,
2013-06-14 16:43:00,78.0,52.0,30.05,WNW,283,1.0,4.0,40,0.00,,,0.00,,2013-06-14 20:43:00,
2013-06-14 16:53:00,77.0,49.0,30.04,WSW,257,1.0,5.0,38,0.00,,,0.00,,2013-06-14 20:53:00,
2013-06-14 17:02:00,78.0,50.0,30.05,West,277,0.0,2.0,38,0.00,,,0.00,,2013-06-14 21:02:00,
2013-06-14 17:12:00,78.0,54.0,30.05,WNW,285,0.0,3.0,44,0.00,,,0.00,,2013-06-14 21:12:00,
2013-06-14 17:22:00,78.0,52.0,30.05,WNW,285,0.0,1.0,40,0.00,,,0.00,,2013-06-14 21:22:00,
2013-06-14 17:34:00,78.0,52.0,30.05,NNW,329,0.0,2.0,40,0.00,,,0.00,,2013-06-14 21:34:00,
2013-06-14 17:42:00,79.0,50.0,30.05,NNW,329,0.0,2.0,37,0.00,,,0.00,,2013-06-14 21:42:00,
2013-06-14 17:52:00,78.0,51.0,30.04,West,260,0.0,5.0,39,0.00,,,0.00,,2013-06-14 21:52:00,
2013-06-14 18:02:00,78.0,52.0,30.04,North,360,0.0,4.0,40,0.00,,,0.00,,2013-06-14 22:02:00,
2013-06-14 18:12:00,78.0,51.0,30.04,ENE,57,1.0,4.0,39,0.00,,,0.00,,2013-06-14 22:12:00,
2013-06-14 18:22:00,78.0,50.0,30.04,NNW,339,0.0,3.0,38,0.00,,,0.00,,2013-06-14 22:22:00,
2013-06-14 18:33:00,78.0,52.0,30.04,NNW,339,0.0,2.0,40,0.00,,,0.00,,2013-06-14 22:33:00,
2013-06-14 18:43:00,77.0,51.0,30.03,NE,55,1.0,5.0,40,0.00,,,0.00,,2013-06-14 22:43:00,
2013-06-14 18:53:00,76.0,51.0,30.03,ENE,71,2.0,4.0,41,0.00,,,0.00,,2013-06-14 22:53:00,
2013-06-14 19:02:00,75.0,52.0,30.03,ENE,74,1.0,6.0,45,0.00,,,0.00,,2013-06-14 23:02:00,
2013-06-14 19:11:00,75.0,53.0,30.03,NNE,22,0.0,8.0,47,0.00,,,0.00,,2013-06-14 23:11:00,
2013-06-14 19:22:00,75.0,55.0,30.03,North,5,1.0,5.0,49,0.00,,,0.00,,2013-06-14 23:22:00,
2013-06-14 19:33:00,74.0,53.0,30.03,NNE,27,2.0,6.0,48,0.00,,,0.00,,2013-06-14 23:33:00,
2013-06-14 19:43:00,73.0,53.0,30.03,North,360,2.0,6.0,49,0.00,,,0.00,,2013-06-14 23:43:00,
2013-06-14 19:52:00,73.0,51.0,30.03,NE,49,1.0,5.0,46,0.00,,,0.00,,2013-06-14 23:52:00,
2013-06-14 20:01:00,73.0,51.0,30.04,NE,49,2.0,5.0,46,0.00,,,0.00,,2013-06-15 00:01:00,
2013-06-14 20:11:00,72.0,51.0,30.03,NE,49,0.0,2.0,48,0.00,,,0.00,,2013-06-15 00:11:00,
2013-06-14 20:23:00,72.0,52.0,30.04,NE,49,0.0,2.0,50,0.00,,,0.00,,2013-06-15 00:23:00,
2013-06-14 20:34:00,71.0,52.0,30.03,NE,49,0.0,1.0,51,0.00,,,0.00,,2013-06-15 00:34:00,
2013-06-14 20:43:00,70.0,49.0,30.03,NE,49,0.0,0.0,48,0.00,,,0.00,,2013-06-15 00:43:00,
2013-06-14 20:53:00,70.0,54.0,30.03,NE,49,0.0,0.0,56,0.00,,,0.00,,2013-06-15 00:53:00,
2013-06-14 21:01:00,68.0,53.0,30.03,NE,49,0.0,0.0,58,0.00,,,0.00,,2013-06-15 01:01:00,
2013-06-14 21:11:00,67.0,53.0,30.03,NE,49,0.0,0.0,60,0.00,,,0.00,,2013-06-15 01:11:00,
2013-06-14 21:22:00,66.0,53.0,30.04,NE,49,0.0,0.0,64,0.00,,,0.00,,2013-06-15 01:22:00,
2013-06-14 21:33:00,65.0,52.0,30.04,NE,49,0.0,0.0,62,0.00,,,0.00,,2013-06-15 01:33:00,
2013-06-14 21:43:00,64.0,52.0,30.03,NE,49,0.0,0.0,65,0.00,,,0.00,,2013-06-15 01:43:00,
2013-06-14 21:54:00,63.0,53.0,30.04,NE,49,0.0,0.0,69,0.00,,,0.00,,2013-06-15 01:54:00,
2013-06-14 22:02:00,62.0,52.0,30.04,NE,49,0.0,0.0,71,0.00,,,0.00,,2013-06-15 02:02:00,
2013-06-14 22:23:00,60.0,52.0,30.05,NE,49,0.0,0.0,74,0.00,,,0.00,,2013-06-15 02:23:00,
2013-06-14 22:33:00,60.0,52.0,30.05,NE,49,0.0,0.0,75,0.00,,,0.00,,2013-06-15 02:33:00,
2013-06-14 22:43:00,59.0,52.0,30.05,NE,49,0.0,0.0,79,0.00,,,0.00,,2013-06-15 02:43:00,
2013-06-14 22:53:00,58.0,53.0,30.05,NE,49,0.0,0.0,82,0.00,,,0.00,,2013-06-15 02:53:00,
2013-06-14 23:01:00,57.0,52.0,30.05,NE,49,0.0,0.0,82,0.00,,,0.00,,2013-06-15 03:01:00,
2013-06-14 23:11:00,57.0,52.0,30.05,NE,49,0.0,0.0,83,0.00,,,0.00,,2013-06-15 03:11:00,
2013-06-14 23:24:00,57.0,52.0,30.05,NE,49,0.0,0.0,84,0.00,,,0.00,,2013-06-15 03:24:00,
2013-06-14 23:32:00,56.0,52.0,30.05,NE,49,0.0,0.0,85,0.00,,,0.00,,2013-06-15 03:32:00,
2013-06-14 23:44:00,56.0,52.0,30.05,NE,49,0.0,0.0,86,0.00,,,0.00,,2013-06-15 03:44:00,
2013-06-14 23:52:00,55.0,51.0,30.05,NE,49,0.0,0.0,87,0.00,,,0.00,,2013-06-15 03:52:00,